Aeroporto :
LOGIN :

Iscrizione | Disclaimer

   EN    FR    IT 

 










Sommario :    VFR   VFR Marginale   IFR   IFR Intensivo   IFR Molto Intensivo
Visibilità : 
Base nubi : 
>= 8 km
>= 3000ft
5 / 8 km
1000 / 3000 ft
1500m / 5 km
500 / 1000 ft
800 / 1500m
200 / 500 ft
< 800m
< 200 ft
Simboli :   Temporali  Nebbia  Neve Forte  Precipitazioni Forti  Vento > 20 kt
SIGMETs :   Varie  Temporali  Ghiacco  Turbolenza  Onda orograficha  Ceneri Vulcaniche






- Altitudine del aeroporto : 2077 ft
- Codice IATA : FMM


EDJA - Memmingen

ULTIMO METAR :
  • 241420Z 22008KT CAVOK 20/09 Q1019

METARs OBSOLETI :
  • 241350Z 24007KT 200V280 CAVOK 20/10 Q1019
  • 241320Z 26007KT CAVOK 20/10 Q1019
  • 241250Z 26010KT 220V290 CAVOK 19/10 Q1020
  • 241220Z 26009KT CAVOK 19/12 Q1020
  • 241150Z 27009KT 240V300 CAVOK 19/12 Q1020

TAF TAF EDJA
Valido dal 24 a 15 ore il 25 a 00 ore UTC


241400Z 2415/2424 26009KT CAVOK
BECMG 2415/2417 22004KT



MetMap, La meteo Aeronautica in un colpo d'occhio ! - Copyright ORBIFLY Dicembre 2007 - Disclaimer

ORBIFLY MET'MAP TEAM :

Programmazione e sviluppo : Alexandra Zaïnal
Concezione : Baudouin d'Aumeries
Aiuto per la programmazione : Marc-Olivier Méhu
Supporto tecnico e logistico : Manuel Goepfert
Aiuto per la traduzione : Arnaldo La Scala

Contatto : metmap@orbifly.com




FONTI E CREDITI :

   NOAA